• In Czech Republic
  • List of Countries
  • For 7 days
  • Water Temperature
  • Satellite Maps
  • Weather Map
  • Weather Widgets
  • user-avatar
    Login

    Hourly Weather Brenna

    Today, 20 June, Wednesday

    Time Temperature Precipitation Wind Pressure Humidity
    00:00 +16°C° 0 mm 1 mps 722 mmHg 87%
    01:00 +16°C° 0 mm 1 mps 722 mmHg 88%
    02:00 +14°C° 0 mm 0 mps 722 mmHg 89%
    03:00 +14°C° 0 mm 0 mps 722 mmHg 90%
    04:00 +14°C° 0 mm 0 mps 722 mmHg 91%
    05:00 +16°C° 0 mm 0 mps 723 mmHg 84%
    06:00 +18°C° 0 mm 0 mps 723 mmHg 77%
    07:00 +20°C° 0 mm 0 mps 723 mmHg 71%
    08:00 +23°C° 0 mm 1 mps 723 mmHg 65%
    09:00 +25°C° 0 mm 1 mps 723 mmHg 59%
    10:00 +26°C° 0 mm 1 mps 724 mmHg 53%
    11:00 +26°C° 0 mm 1 mps 723 mmHg 52%
    12:00 +27°C° 0 mm 1 mps 723 mmHg 50%
    13:00 +27°C° 0 mm 1 mps 723 mmHg 49%
    14:00 +27°C° 0 mm 1 mps 723 mmHg 50%
    15:00 +27°C° 0 mm 1 mps 722 mmHg 50%
    16:00 +27°C° 0 mm 1 mps 722 mmHg 51%
    17:00 +26°C° 0 mm 1 mps 722 mmHg 57%
    18:00 +25°C° 0 mm 1 mps 721 mmHg 63%
    19:00 +23°C° 0 mm 1 mps 721 mmHg 69%
    20:00 +22°C° 0 mm 1 mps 721 mmHg 73%
    21:00 +21°C° 0 mm 1 mps 721 mmHg 77%
    22:00 +19°C° 0 mm 1 mps 721 mmHg 81%
    23:00 +19°C° 0 mm 1 mps 720 mmHg 83%

    Tomorrow, 21 June, Thursday

    Time Temperature Precipitation Wind Pressure Humidity
    00:00 +19°C° 0 mm 1 mps 720 mmHg 84%
    01:00 +18°C° 0 mm 1 mps 720 mmHg 86%
    02:00 +18°C° 0 mm 1 mps 719 mmHg 87%
    03:00 +18°C° 0 mm 1 mps 719 mmHg 87%
    04:00 +17°C° 0 mm 2 mps 719 mmHg 88%
    05:00 +19°C° 0 mm 2 mps 719 mmHg 82%
    06:00 +21°C° 0 mm 2 mps 719 mmHg 75%
    07:00 +24°C° 0 mm 2 mps 719 mmHg 69%
    08:00 +25°C° 0.2 mm 3 mps 718 mmHg 66%
    09:00 +26°C° 0.2 mm 3 mps 718 mmHg 64%
    10:00 +27°C° 0.2 mm 4 mps 717 mmHg 61%
    11:00 +27°C° 0.6 mm 4 mps 717 mmHg 60%
    12:00 +28°C° 0.6 mm 5 mps 716 mmHg 59%
    13:00 +28°C° 0.6 mm 5 mps 716 mmHg 59%
    14:00 +28°C° 0.5 mm 5 mps 715 mmHg 61%
    15:00 +28°C° 0.5 mm 5 mps 715 mmHg 64%
    16:00 +27°C° 0.5 mm 5 mps 714 mmHg 66%
    17:00 +26°C° 1.1 mm 4 mps 714 mmHg 72%
    18:00 +23°C° 1.1 mm 4 mps 713 mmHg 78%
    19:00 +22°C° 1.1 mm 4 mps 713 mmHg 83%
    20:00 +20°C° 1.5 mm 4 mps 713 mmHg 86%
    21:00 +19°C° 1.5 mm 4 mps 714 mmHg 89%
    22:00 +18°C° 1.5 mm 4 mps 714 mmHg 92%
    23:00 +15°C° 1 mm 4 mps 715 mmHg 91%

    Day after tomorrow, 22 June, Friday

    Time Temperature Precipitation Wind Pressure Humidity
    00:00 +14°C° 1 mm 4 mps 715 mmHg 90%
    01:00 +13°C° 1 mm 4 mps 715 mmHg 90%
    02:00 +11°C° 0 mm 3 mps 716 mmHg 88%
    03:00 +10°C° 0 mm 3 mps 716 mmHg 87%
    04:00 +9°C° 0 mm 3 mps 716 mmHg 85%
    05:00 +9°C° 0 mm 3 mps 716 mmHg 82%
    06:00 +10°C° 0 mm 3 mps 717 mmHg 78%
    07:00 +10°C° 0 mm 3 mps 717 mmHg 74%
    08:00 +12°C° 0 mm 3 mps 717 mmHg 65%
    09:00 +13°C° 0 mm 3 mps 717 mmHg 56%
    10:00 +14°C° 0 mm 3 mps 717 mmHg 48%
    11:00 +15°C° 0 mm 4 mps 717 mmHg 48%
    12:00 +15°C° 0 mm 4 mps 717 mmHg 48%
    13:00 +17°C° 0 mm 4 mps 717 mmHg 48%
    14:00 +15°C° 0.2 mm 4 mps 717 mmHg 53%
    15:00 +14°C° 0.2 mm 4 mps 717 mmHg 58%
    16:00 +13°C° 0.2 mm 4 mps 717 mmHg 63%
    17:00 +13°C° 0.3 mm 3 mps 717 mmHg 68%
    18:00 +12°C° 0.3 mm 3 mps 717 mmHg 74%
    19:00 +12°C° 0.3 mm 2 mps 717 mmHg 79%
    20:00 +10°C° 0.1 mm 2 mps 717 mmHg 82%
    21:00 +9°C° 0.1 mm 2 mps 718 mmHg 85%
    22:00 +8°C° 0.1 mm 2 mps 718 mmHg 89%
    23:00 +8°C° 0 mm 2 mps 718 mmHg 90%

    23 June, Saturday

    Time Temperature Precipitation Wind Pressure Humidity
    00:00 +7°C° 0 mm 2 mps 718 mmHg 91%
    01:00 +7°C° 0 mm 2 mps 718 mmHg 92%
    02:00 +7°C° 0 mm 2 mps 718 mmHg 92%
    03:00 +6°C° 0 mm 2 mps 718 mmHg 93%
    04:00 +6°C° 0 mm 2 mps 718 mmHg 93%
    05:00 +8°C° 0 mm 2 mps 718 mmHg 90%
    06:00 +9°C° 0 mm 2 mps 718 mmHg 86%
    07:00 +12°C° 0 mm 2 mps 719 mmHg 82%
    08:00 +11°C° 0.3 mm 3 mps 719 mmHg 80%
    09:00 +12°C° 0.3 mm 3 mps 719 mmHg 78%
    10:00 +12°C° 0.3 mm 4 mps 719 mmHg 76%
    11:00 +13°C° 0.2 mm 4 mps 719 mmHg 73%
    12:00 +13°C° 0.2 mm 4 mps 718 mmHg 70%
    13:00 +14°C° 0.2 mm 4 mps 718 mmHg 67%
    14:00 +14°C° 0.1 mm 4 mps 718 mmHg 66%
    15:00 +14°C° 0.1 mm 4 mps 718 mmHg 65%
    16:00 +14°C° 0.1 mm 4 mps 718 mmHg 64%
    17:00 +13°C° 0.1 mm 4 mps 718 mmHg 68%
    18:00 +12°C° 0.1 mm 3 mps 718 mmHg 71%
    19:00 +12°C° 0.1 mm 2 mps 718 mmHg 75%
    20:00 +10°C° 0 mm 2 mps 719 mmHg 78%
    21:00 +10°C° 0 mm 1 mps 719 mmHg 82%
    22:00 +9°C° 0 mm 1 mps 719 mmHg 85%
    23:00 +8°C° 0 mm 1 mps 719 mmHg 86%

    24 June, Sunday

    Time Temperature Precipitation Wind Pressure Humidity
    00:00 +8°C° 0 mm 1 mps 719 mmHg 87%
    01:00 +7°C° 0 mm 1 mps 719 mmHg 88%
    02:00 +7°C° 0 mm 1 mps 719 mmHg 89%
    03:00 +7°C° 0 mm 1 mps 719 mmHg 89%
    04:00 +7°C° 0 mm 1 mps 719 mmHg 90%
    05:00 +9°C° 0 mm 1 mps 719 mmHg 85%
    06:00 +11°C° 0 mm 1 mps 719 mmHg 80%
    07:00 +12°C° 0 mm 1 mps 720 mmHg 75%
    08:00 +13°C° 0.1 mm 2 mps 720 mmHg 71%
    09:00 +14°C° 0.1 mm 2 mps 720 mmHg 67%
    10:00 +15°C° 0.1 mm 2 mps 720 mmHg 63%
    11:00 +16°C° 0.1 mm 2 mps 720 mmHg 63%
    12:00 +16°C° 0.1 mm 2 mps 720 mmHg 63%
    13:00 +16°C° 0.1 mm 2 mps 720 mmHg 63%
    14:00 +17°C° 0.1 mm 2 mps 720 mmHg 62%
    15:00 +17°C° 0.1 mm 2 mps 720 mmHg 62%
    16:00 +17°C° 0.1 mm 2 mps 720 mmHg 62%
    17:00 +16°C° 0.1 mm 2 mps 720 mmHg 66%
    18:00 +15°C° 0.1 mm 2 mps 720 mmHg 71%
    19:00 +14°C° 0.1 mm 1 mps 720 mmHg 75%
    20:00 +13°C° 0 mm 1 mps 720 mmHg 79%
    21:00 +11°C° 0 mm 1 mps 720 mmHg 83%
    22:00 +10°C° 0 mm 1 mps 720 mmHg 87%
    23:00 +10°C° 0 mm 1 mps 720 mmHg 88%

    25 June, Monday

    Time Temperature Precipitation Wind Pressure Humidity
    00:00 +9°C° 0 mm 1 mps 720 mmHg 89%
    01:00 +9°C° 0 mm 1 mps 720 mmHg 90%
    02:00 +9°C° 0 mm 1 mps 720 mmHg 91%
    03:00 +8°C° 0 mm 1 mps 720 mmHg 91%
    04:00 +8°C° 0 mm 1 mps 720 mmHg 92%
    05:00 +10°C° 0 mm 1 mps 720 mmHg 86%
    06:00 +12°C° 0 mm 1 mps 721 mmHg 80%
    07:00 +14°C° 0 mm 1 mps 721 mmHg 73%
    08:00 +16°C° 0 mm 1 mps 721 mmHg 67%
    09:00 +17°C° 0 mm 2 mps 721 mmHg 60%
    10:00 +19°C° 0 mm 2 mps 721 mmHg 53%
    11:00 +20°C° 0.1 mm 2 mps 721 mmHg 52%
    12:00 +20°C° 0.1 mm 2 mps 721 mmHg 50%
    13:00 +21°C° 0.1 mm 2 mps 721 mmHg 49%
    14:00 +21°C° 0.2 mm 2 mps 721 mmHg 51%
    15:00 +21°C° 0.2 mm 2 mps 721 mmHg 53%
    16:00 +20°C° 0.2 mm 2 mps 720 mmHg 55%
    17:00 +19°C° 0.1 mm 2 mps 720 mmHg 61%
    18:00 +18°C° 0.1 mm 2 mps 720 mmHg 67%
    19:00 +18°C° 0.1 mm 1 mps 720 mmHg 73%
    20:00 +15°C° 0 mm 1 mps 721 mmHg 77%
    21:00 +14°C° 0 mm 1 mps 721 mmHg 81%
    22:00 +13°C° 0 mm 1 mps 721 mmHg 85%
    23:00 +12°C° 0 mm 1 mps 721 mmHg 86%
    Show more